Regional Weather Roundup
Issued by NWS

Home | Current Version | Previous Version | Graphics & Text | Print | Product List | Glossary On
Versions: 1 2 3 4 5 6 7 8 9 10 11 12 13 14 15 16 17 18 19 20 21 22 23 24 25 26 27 28
000
ASUS45 KCYS 270410
RWRWY

WYOMING REGIONAL WEATHER ROUNDUP
NATIONAL WEATHER SERVICE CHEYENNE WY
1000 PM MDT MON SEP 26 2016

NOTE:  "FAIR" INDICATES FEW OR NO CLOUDS BELOW 12,000 FEET
WITH NO SIGNIFICANT WEATHER AND/OR OBSTRUCTIONS TO VISIBILITY.

WYZ001-270500-
YELLOWSTONE NATIONAL PARK

CITY           SKY/WX    TMP DP  RH WIND       PRES   REMARKS
LK YELLOWSTONE   N/A     38  37  97 CALM      30.47S
W YELLOWSTONE  NOT AVBL

$$
WYZ002>013-054>058-071-098>099-270500-
NORTHERN WYOMING

CITY           SKY/WX    TMP DP  RH WIND       PRES   REMARKS
JACKSON        FAIR      46  43  87 N7        30.38S
CODY           FAIR      54  46  76 S7        30.28F
GREYBULL       FAIR      55  48  77 E6        30.23F
WORLAND        FAIR      54  47  77 CALM      30.24F
SHERIDAN       FAIR      47  44  90 CALM      30.19F
BUFFALO        FAIR      53  44  71 CALM      30.26F
GILLETTE       FAIR      49  46  90 S5        30.22F
HULETT         FAIR      50  43  76 SW8       30.22F
NEWCASTLE      FAIR      50  41  71 CALM      30.25S

$$
WYZ014>020-022>026-101>103-270500-
CENTRAL WYOMING

CITY           SKY/WX    TMP DP  RH WIND       PRES   REMARKS
BIG PINEY      FAIR      51  39  63 E5        30.41S
PINEDALE       FAIR      50  37  62 E3        30.43S
DUBOIS         FAIR      50  39  66 W6        30.42S
LANDER         FAIR      56  37  49 SW8       30.32F
RIVERTON       FAIR      54  43  66 CALM      30.33F
CASPER         FAIR      49  43  80 SW6       30.31F
DOUGLAS        FAIR      49  41  74 E3        30.30F

$$
WYZ021-027>030-104>119-270500-
SOUTHERN WYOMING

CITY           SKY/WX    TMP DP  RH WIND       PRES   REMARKS
EVANSTON       FAIR      58  36  43 NE5       30.40S
FORT BRIDGER   FAIR      60  35  38 S6        30.43S
ROCK SPRINGS   FAIR      56  38  50 SE5       30.39F
DIXON          FAIR      51  38  61 NE7       30.41F
RAWLINS        FAIR      45  37  73 N6        30.40S
SARATOGA       FAIR      45  34  65 S5        30.42S
LARAMIE        FAIR      44  37  76 W6        30.42S
CHEYENNE       FAIR      51  40  65 W5        30.37F
TORRINGTON     FAIR      54  44  69 CALM      30.26S
PINE BLUFFS    FAIR      43  36  75 SW3       30.33F

$$




USA.gov is the U.S. government's official web portal to all federal, state and local government web resources and services.